Regional Weather Roundup
Issued by NWS Northern Indiana

Home | Current Version | Previous Version | Graphics & Text | Print | Product List | Glossary On
Versions: 1 2 3 4 5 6 7 8 9 10 11 12 13 14 15 16 17 18 19 20 21 22 23 24 25 26 27 28 29 30 31 32 33 34 35 36 37 38 39 40 41 42 43 44 45 46 47 48 49 50
000
ASUS43 KIWX 041010
RWRIWX

KIWX WEATHER ROUNDUP
NATIONAL WEATHER SERVICE NORTHERN INDIANA
600 AM EDT TUE AUG 04 2015

NOTE: "FAIR" INDICATES FEW OR NO CLOUDS BELOW 12,000 FEET WITH NO
SIGNIFICANT WEATHER AND/OR OBSTRUCTIONS TO VISIBILITY.

* THESE STATIONS ARE NOT UNDER NWS QUALITY CONTROL. THEY ALSO MAY NOT
  REPORT WEATHER SUCH AS PRECIPITATION OR FOG.

INZ001>027-041100-
NORTHERN INDIANA

CITY           SKY/WX    TMP DP  RH WIND       PRES   REMARKS
GARY*          CLEAR     57  57 100 W5        29.93S
VALPARAISO     CLEAR     61  55  81 W6        29.93S
MICHIGAN CITY* CLEAR     57  57 100 CALM      29.93S
LAPORTE*       CLEAR     57  57 100 CALM      29.94R
KNOX*          CLEAR     57  55  94 CALM      29.92S
SOUTH BEND     CLEAR     59  55  87 SW3       29.93S
GOSHEN         PTCLDY    59  54  83 SW3       29.93R
MONTICELLO*    CLEAR     58  57  96 CALM      29.94R
LOGANSPORT*    CLEAR     55  52  88 CALM      29.95R
ROCHESTER*     CLEAR     61  57  88 SW3       29.94R
WARSAW*        CLEAR     59  54  82 CALM      29.93S
ANGOLA*        CLEAR     55  54  94 CALM      29.93R
FORT WAYNE     CLEAR     59  56  89 SW6       29.94S
HUNTINGTON*    CLEAR     61  57  88 CALM      29.94S
PERU/GRISSOM   CLEAR     59  57  94 SW3       29.94S
MARION*        CLEAR     55  55  99 CALM      29.96R FOG

$$
INZ028>050-041100-
CENTRAL INDIANA

CITY           SKY/WX    TMP DP  RH WIND       PRES   REMARKS
LAFAYETTE      CLEAR     55  54  96 CALM      29.94R
KOKOMO*        CLEAR     57  54  88 CALM      29.95S
MUNCIE*        CLEAR     57  56  96 CALM      29.95S
INDIANAPOLIS   CLEAR     65  57  75 CALM      29.94S

$$
MIZ043>046-050>051-056>058-064>065-071>073-077>080-041100-
SOUTHWEST LOWER MICHIGAN

CITY           SKY/WX    TMP DP  RH WIND       PRES   REMARKS
BATTLE CREEK     N/A    N/A N/A N/A MISG      29.91S
BENTON HARBOR  CLEAR     56  54  93 CALM      29.91R
COLDWATER*     CLEAR     56  52  86 W3        29.92R
HILLSDALE*     CLEAR     59  53  80 CALM      29.92S
HOLLAND        CLEAR     59  56  89 CALM      29.90R
GRAND RAPIDS   PTCLDY    61  56  83 SW3       29.89S
KALAMAZOO      CLEAR     60  54  80 S3        29.92R
STURGIS*       CLEAR     57  54  88 CALM      29.92R
THREE RIVERS*  FAIR      56  54  91 CALM      29.92R

$$
OHZ001>008-015>018-024>025-041100-
NORTHWEST OHIO

CITY           SKY/WX    TMP DP  RH WIND       PRES   REMARKS
WAUSEON*       FAIR      57  55  94 W5        29.92R
DEFIANCE       CLEAR     58  53  84 SW3       29.93R
FINDLAY        CLEAR     57  52  83 SW3       29.92R
TOLEDO EXPRESS CLEAR     58  53  84 W6        29.91S
TOLEDO METCALF CLEAR     59  52  77 SW5       29.92S
LIMA           CLEAR     59  53  80 S3        29.94S

$$
AND FOR LAKE MICHIGAN COASTAL AND OPEN LAKE BUOY OBSERVATIONS

STATION/POSITION TEMP    WIND        PRES    VSBY  WAVE
                 AIR SEA DIR/SP/G                  HT/PER
                 (F)     (DEG/KT/KT) (MB)    (MI)  (FT/S)
CALUMET HARBOR    66     240/  3/  4   N/A
MICHIGAN CITY     65     180/  5/  6   N/A
BURNS HARBOR      66     200/  6/  7 1013.9R
SAINT JOSEPH      71     320/  3/  6 1013.5S
4 MI NW BRIDGMAN  71 73  360/  6/  8   N/A           2/ 3
MICHIGAN CITY     72 73  300/  6/  8   N/A           2/ 3

$$
&&


USA.gov is the U.S. government's official web portal to all federal, state and local government web resources and services.